1486094400.18,23967,9.06,72866.5,-5.09,-8.93,-7.61,0,*57
1486094401.43,23968,9.06,72864.3,-5.09,-8.81,-7.57,0,*5E
1486094402.66,23969,9.06,72866.3,-5.09,-8.55,-7.57,0,*56
1486094403.9,23970,9.0,72866.3,-5.11,-8.55,-7.39,0,*5F
1486094405.15,23971,9.0,72864.5,-5.11,-8.55,-7.35,0,*52
1486094406.4,23972,9.0,72866.0,-5.11,-8.41,-7.27,0,*57
1486094407.65,23973,9.06,72868.0,-5.11,-8.37,-7.31,0,*50
1486094408.87,23974,9.06,72868.8,-5.09,-8.29,-7.35,0,*55
1486094410.09,23975,9.06,72866.3,-5.09,-8.37,-7.31,0,*5F
1486094411.31,23976,9.06,72860.5,-5.09,-8.41,-7.35,0,*59
1486094412.53,23977,9.06,72858.8,-5.11,-8.63,-7.53,0,*51
1486094413.75,23978,9.06,72862.0,-5.09,-8.81,-7.49,0,*50
1486094414.97,23979,9.0,72862.3,-5.11,-9.01,-7.53,0,*5A
1486094416.23,23980,9.06,72854.8,-5.09,-9.11,-7.57,0,*50
1486094417.45,23981,9.06,72846.0,-5.09,-9.23,-7.61,0,*55
1486094418.73,23982,9.06,72850.8,-5.11,-9.41,-7.65,0,*5F
1486094419.98,23983,9.06,72858.8,-5.09,-9.41,-7.61,0,*53
1486094421.26,23984,9.0,72854.5,-5.11,-9.41,-7.61,0,*5D
1486094422.48,23985,9.06,72854.0,-5.09,-9.37,-7.49,0,*5E
1486094423.7,23986,9.06,72852.0,-5.11,-9.27,-7.53,0,*5E
1486094424.95,23987,9.0,72852.8,-5.11,-9.23,-7.43,0,*5A
1486094426.17,23988,9.06,72862.0,-5.09,-9.19,-7.35,0,*54
1486094427.45,23989,9.06,72866.0,-5.07,-9.15,-7.27,0,*54
1486094428.68,23990,9.06,72864.5,-5.09,-9.19,-7.35,0,*5D
1486094429.9,23991,9.06,72864.5,-5.09,-9.19,-7.35,0,*5C
1486094431.16,23992,9.06,72860.3,-5.09,-9.11,-7.35,0,*57
1486094432.43,23993,9.06,72864.0,-5.11,-9.15,-7.35,0,*5B
1486094433.67,23994,9.06,72866.3,-5.09,-9.11,-7.23,0,*56
1486094434.87,23995,9.06,72872.0,-5.09,-9.05,-7.23,0,*52
1486094436.1,23996,9.06,72870.5,-5.09,-9.11,-7.23,0,*54
1486094437.3,23997,9.06,72866.3,-5.09,-8.97,-7.23,0,*5A
1486094438.5,23998,9.0,72854.0,-5.09,-8.97,-7.23,0,*55
1486094439.71,23999,9.06,72856.8,-5.09,-8.93,-7.23,0,*50
1486094440.94,24000,9.06,72854.8,-5.09,-8.93,-7.31,0,*5D
1486094442.17,24001,9.0,72854.0,-5.09,-8.93,-7.31,0,*5C
1486094443.4,24002,9.06,72856.8,-5.09,-8.93,-7.31,0,*5F
1486094444.65,24003,9.06,72856.3,-5.11,-8.85,-7.27,0,*57
1486094445.87,24004,9.06,72860.8,-5.09,-8.81,-7.23,0,*59
1486094447.09,24005,9.06,72866.5,-5.09,-8.81,-7.23,0,*58
1486094448.29,24006,9.06,72862.8,-5.09,-8.67,-7.23,0,*53
1486094449.49,24007,9.06,72852.8,-5.09,-8.59,-7.23,0,*5F
1486094450.69,24008,9.0,72858.5,-5.09,-8.55,-7.19,0,*55
1486094451.94,24009,9.06,72854.3,-5.11,-8.59,-7.27,0,*5C
1486094453.14,24010,9.06,72856.3,-5.09,-8.59,-7.19,0,*50
1486094454.36,24011,9.0,72852.8,-5.09,-8.51,-7.23,0,*50
1486094455.57,24012,9.06,72856.3,-5.09,-8.55,-7.23,0,*57
1486094456.77,24013,9.0,72856.3,-5.09,-8.41,-7.19,0,*5A
1486094458.02,24014,9.0,72860.5,-5.11,-8.45,-7.27,0,*5D
1486094459.24,24015,9.0,72860.3,-5.11,-8.41,-7.23,0,*5C
1486094460.44,24016,9.06,72858.0,-5.09,-8.29,-7.19,0,*51
1486094461.63,24017,9.06,72856.8,-5.09,-8.29,-7.19,0,*50
1486094462.85,24018,9.06,72864.5,-5.07,-8.25,-7.15,0,*51
1486094464.07,24019,9.0,72868.0,-5.07,-8.33,-7.15,0,*57
1486094465.27,24020,9.06,72870.5,-5.05,-8.33,-7.15,0,*5F
1486094466.49,24021,9.06,72864.8,-5.07,-8.25,-7.15,0,*5B
1486094467.72,24022,9.06,72866.0,-5.07,-8.33,-7.05,0,*5E
1486094468.94,24023,9.06,72868.3,-5.11,-8.33,-7.11,0,*5D
1486094470.14,24024,9.0,72866.3,-5.09,-8.29,-7.11,0,*58
1486094471.35,24025,9.06,72854.3,-5.09,-8.29,-7.05,0,*5C
1486094472.57,24026,9.0,72858.0,-5.09,-8.17,-6.97,0,*58
1486094473.79,24027,9.06,72854.3,-5.09,-8.17,-6.97,0,*59
1486094475.01,24028,9.0,72856.0,-5.09,-8.21,-6.97,0,*53
1486094476.26,24029,9.06,72860.5,-5.09,-8.03,-6.93,0,*56
1486094477.5,24030,9.0,72840.8,-5.09,-8.03,-6.93,0,*5E
1486094478.74,24031,9.06,72836.0,-5.09,-8.03,-6.97,0,*5B
1486094479.98,24032,9.06,72840.0,-5.09,-7.99,-6.93,0,*50
1486094481.23,24033,9.06,72840.5,-5.09,-7.91,-6.97,0,*5D
1486094482.47,24034,9.06,72846.8,-5.09,-7.77,-6.93,0,*56
1486094483.69,24035,9.0,72844.0,-5.09,-7.77,-6.85,0,*50
1486094484.94,24036,9.06,72846.5,-5.09,-7.73,-6.93,0,*50
1486094486.18,24037,9.06,72850.3,-5.07,-7.69,-6.89,0,*5F
1486094487.43,24038,9.06,72852.8,-5.07,-7.61,-6.89,0,*58
1486094488.67,24039,9.0,72854.5,-5.07,-7.53,-6.93,0,*53
1486094489.95,24040,9.0,72848.0,-5.07,-7.57,-7.01,0,*53
1486094491.19,24041,9.0,72838.3,-5.09,-7.61,-7.05,0,*5D
1486094492.42,24042,9.0,72836.8,-5.09,-7.61,-7.11,0,*5B
1486094493.65,24043,9.06,72844.5,-5.09,-7.57,-7.11,0,*5F
1486094494.87,24044,9.0,72842.8,-5.07,-7.53,-7.15,0,*56
1486094496.09,24045,9.06,72844.0,-5.07,-7.53,-7.15,0,*57
1486094497.32,24046,9.0,72852.8,-5.09,-7.57,-7.23,0,*5B
1486094498.55,24047,9.0,72854.8,-5.09,-7.57,-7.23,0,*5A
1486094499.8,24048,9.06,72846.3,-5.07,-7.57,-7.19,0,*52
1486094501.05,24049,9.06,72852.8,-5.07,-7.57,-7.19,0,*53
1486094502.3,24050,9.06,72854.5,-5.07,-7.57,-7.19,0,*5B
1486094503.55,24051,9.0,72850.5,-5.07,-7.57,-7.19,0,*5A
1486094504.82,24052,9.06,72854.0,-5.07,-7.61,-7.27,0,*51
1486094506.07,24053,9.0,72854.0,-5.09,-7.73,-7.31,0,*5A
1486094507.34,24054,9.0,72852.3,-5.07,-7.69,-7.27,0,*5F
1486094508.59,24055,9.0,72854.3,-5.07,-7.73,-7.19,0,*58
1486094509.84,24056,9.06,72854.5,-5.07,-7.73,-7.19,0,*5B
1486094511.1,24057,9.06,72850.8,-5.07,-7.73,-7.19,0,*5A
1486094512.35,24058,9.06,72858.0,-5.07,-7.73,-7.15,0,*59
1486094513.59,24059,9.06,72856.5,-5.07,-7.69,-7.15,0,*53
1486094514.81,24060,9.06,72848.5,-5.05,-7.69,-7.15,0,*5B
1486094516.06,24061,9.0,72852.0,-5.07,-7.69,-7.19,0,*54
1486094517.3,24062,9.06,72844.8,-5.07,-7.69,-7.15,0,*5B
1486094518.55,24063,9.0,72852.0,-5.07,-7.61,-7.15,0,*52
1486094519.8,24064,9.06,72850.0,-5.07,-7.69,-7.15,0,*5D
1486094521.03,24065,9.06,72852.0,-5.07,-7.53,-7.05,0,*54
1486094522.27,24066,9.0,72850.0,-5.07,-7.53,-7.01,0,*53
1486094523.53,24067,9.06,72854.3,-5.07,-7.57,-7.15,0,*53
1486094524.78,24068,9.06,72858.0,-5.07,-7.57,-7.19,0,*50
1486094525.98,24069,9.06,72858.5,-5.05,-7.53,-7.19,0,*57
1486094527.17,24070,9.06,72860.5,-5.05,-7.53,-7.19,0,*5F
1486094528.39,24071,9.06,72860.5,-5.07,-7.53,-7.15,0,*50
1486094529.62,24072,9.06,72856.0,-5.07,-7.53,-7.15,0,*53
1486094530.83,24073,9.0,72848.8,-5.07,-7.53,-7.15,0,*52
1486094532.05,24074,9.06,72854.5,-5.07,-7.53,-7.19,0,*59
1486094533.28,24075,9.0,72848.8,-5.07,-7.53,-7.19,0,*58
1486094534.5,24076,9.0,72854.8,-5.07,-7.53,-7.19,0,*5B
1486094535.74,24077,9.0,72854.3,-5.07,-7.53,-7.27,0,*57
1486094536.96,24078,9.06,72856.0,-5.07,-7.53,-7.19,0,*55
1486094538.24,24079,9.0,72856.8,-5.07,-7.57,-7.27,0,*5D
1486094539.51,24080,9.0,72850.0,-5.07,-7.57,-7.31,0,*5C
1486094540.78,24081,9.0,72846.8,-5.07,-7.57,-7.31,0,*5D
1486094542.03,24082,9.06,72848.8,-5.05,-7.69,-7.39,0,*59
1486094543.3,24083,9.06,72848.5,-5.07,-7.69,-7.43,0,*57
1486094544.55,24084,9.0,72844.3,-5.07,-7.83,-7.39,0,*59
1486094545.79,24085,9.06,72846.0,-5.07,-7.83,-7.31,0,*50
1486094547.04,24086,9.0,72844.0,-5.07,-7.87,-7.39,0,*5F
1486094548.31,24087,9.06,72850.0,-5.07,-7.95,-7.39,0,*5D
1486094549.58,24088,9.06,72850.8,-5.07,-7.95,-7.31,0,*5A
1486094550.85,24089,9.0,72850.5,-5.07,-8.07,-7.31,0,*5F
1486094552.1,24090,9.06,72852.8,-5.05,-8.07,-7.27,0,*52
1486094553.32,24091,9.06,72858.3,-5.07,-8.21,-7.19,0,*58
1486094554.57,24092,9.0,72852.5,-5.07,-8.11,-7.19,0,*58
1486094555.79,24093,9.0,72848.3,-5.07,-8.21,-7.15,0,*56
1486094557.06,24094,9.0,72848.5,-5.07,-8.11,-7.05,0,*53
1486094558.27,24095,9.0,72850.8,-5.05,-8.21,-7.05,0,*53
1486094559.51,24096,9.06,72850.5,-5.07,-8.21,-7.05,0,*52
1486094560.75,24097,9.0,72844.3,-5.07,-8.21,-7.01,0,*57
1486094562.02,24098,9.06,72844.3,-5.07,-8.07,-6.93,0,*56
1486094563.27,24099,9.0,72838.8,-5.07,-7.99,-6.89,0,*54
1486094564.5,24100,9.06,72840.3,-5.05,-7.95,-6.81,0,*53
1486094565.75,24101,9.06,72840.0,-5.07,-7.95,-6.81,0,*50
1486094566.97,24102,9.06,72836.5,-5.07,-7.87,-6.81,0,*50
1486094568.19,24103,9.06,72838.0,-5.07,-7.83,-6.77,0,*5C
1486094569.42,24104,9.0,72836.0,-5.05,-7.73,-6.77,0,*56
1486094570.67,24105,9.0,72838.0,-5.07,-7.61,-6.77,0,*56
1486094571.92,24106,9.06,72850.5,-5.07,-7.57,-6.77,0,*50
1486094573.15,24107,9.0,72848.8,-5.09,-7.57,-6.81,0,*56
1486094574.39,24108,9.06,72848.3,-5.07,-7.39,-6.73,0,*52
1486094575.62,24109,9.06,72850.5,-5.07,-7.39,-6.73,0,*53
1486094576.86,24110,9.06,72850.8,-5.07,-7.31,-6.77,0,*57
1486094578.13,24111,9.06,72850.0,-5.07,-7.27,-6.63,0,*54
1486094579.35,24112,9.06,72850.3,-5.07,-7.15,-6.73,0,*57
1486094580.57,24113,9.06,72844.8,-5.07,-7.15,-6.73,0,*56
1486094581.8,24114,9.06,72846.8,-5.07,-7.19,-6.73,0,*5D
1486094583.04,24115,9.06,72848.3,-5.07,-7.19,-6.63,0,*5D
1486094584.27,24116,9.06,72850.8,-5.05,-7.05,-6.73,0,*50
1486094585.51,24117,9.06,72848.8,-5.07,-7.01,-6.73,0,*57
1486094586.78,24118,9.0,72842.8,-5.07,-6.93,-6.63,0,*53
1486094588.03,24119,9.06,72844.5,-5.07,-6.89,-6.63,0,*59
1486094589.28,24120,9.06,72848.5,-5.07,-6.81,-6.63,0,*5B
1486094590.51,24121,9.0,72850.0,-5.05,-6.81,-6.63,0,*58
1486094591.71,24122,9.06,72854.0,-5.05,-6.81,-6.73,0,*5A
1486094592.93,24123,9.06,72852.8,-5.07,-6.89,-6.73,0,*51
1486094594.15,24124,9.06,72854.8,-5.07,-6.81,-6.73,0,*5E
1486094595.4,24125,9.0,72852.5,-5.07,-6.81,-6.63,0,*5E
1486094596.62,24126,9.0,72854.0,-5.05,-6.77,-6.63,0,*56
1486094597.83,24127,9.06,72856.0,-5.05,-6.77,-6.73,0,*56
1486094599.05,24128,9.06,72854.3,-5.07,-6.77,-6.73,0,*5B
1486094600.25,24129,9.06,72858.3,-5.05,-6.77,-6.81,0,*55
1486094601.46,24130,9.0,72852.5,-5.05,-6.81,-6.77,0,*5D
1486094602.69,24131,9.06,72856.0,-5.07,-6.77,-6.81,0,*5E
1486094603.89,24132,9.0,72856.0,-5.05,-6.77,-6.81,0,*5F
1486094605.12,24133,9.06,72858.0,-5.05,-6.81,-6.93,0,*54
1486094606.35,24134,9.06,72856.3,-5.05,-6.81,-6.93,0,*53
1486094607.57,24135,9.06,72858.3,-5.05,-6.81,-7.01,0,*58
1486094608.8,24136,9.0,72858.0,-5.05,-6.81,-7.01,0,*5B
1486094610.0,24137,9.06,72858.0,-5.05,-6.81,-7.15,0,*5F
1486094611.21,24138,9.0,72858.8,-5.05,-6.81,-7.19,0,*5C
1486094612.46,24139,9.0,72862.3,-5.05,-6.93,-7.27,0,*53
1486094613.69,24140,9.0,72860.5,-5.05,-6.89,-7.31,0,*51
1486094614.91,24141,9.06,72866.5,-5.05,-6.89,-7.43,0,*55
1486094616.14,24142,9.0,72862.8,-5.05,-6.93,-7.53,0,*5C
1486094617.39,24143,9.06,72866.3,-5.05,-7.01,-7.57,0,*53
1486094618.65,24144,9.06,72862.5,-5.07,-7.01,-7.69,0,*5B
1486094619.9,24145,9.06,72862.8,-5.05,-7.05,-7.69,0,*5C
1486094621.1,24146,9.0,72860.5,-5.05,-7.15,-7.87,0,*5E
1486094622.33,24147,9.06,72866.3,-5.05,-7.19,-7.95,0,*50
1486094623.58,24148,9.0,72860.3,-5.05,-7.31,-8.07,0,*51
1486094624.83,24149,9.06,72860.0,-5.07,-7.43,-8.21,0,*53
1486094626.03,24150,9.0,72860.5,-5.05,-7.53,-8.21,0,*58
1486094627.22,24151,9.0,72858.0,-5.05,-7.53,-8.33,0,*5A
1486094628.43,24152,9.06,72860.5,-5.05,-7.69,-8.33,0,*50
1486094629.64,24153,9.0,72858.0,-5.05,-7.83,-8.37,0,*51
1486094630.89,24154,9.0,72858.0,-5.05,-7.73,-8.51,0,*59
1486094632.13,24155,9.0,72858.3,-5.07,-7.87,-8.51,0,*51
1486094633.4,24156,9.0,72860.0,-5.07,-7.95,-8.51,0,*51
1486094634.62,24157,9.0,72860.3,-5.05,-8.07,-8.55,0,*52
1486094635.81,24158,9.06,72860.3,-5.05,-8.21,-8.63,0,*5C
1486094637.0,24159,9.0,72862.3,-5.05,-8.21,-8.63,0,*5D
1486094638.2,24160,9.0,72860.8,-5.05,-8.21,-8.63,0,*57
1486094639.39,24161,9.0,72858.8,-5.05,-8.21,-8.55,0,*53
1486094640.6,24162,9.06,72866.5,-5.07,-8.25,-8.55,0,*56
1486094641.78,24163,9.06,72866.3,-5.05,-8.33,-8.55,0,*52
1486094642.97,24164,9.06,72866.3,-5.05,-8.33,-8.63,0,*50
1486094644.17,24165,9.06,72864.5,-5.05,-8.37,-8.63,0,*55
1486094645.38,24166,9.0,72862.8,-5.07,-8.37,-8.67,0,*50
1486094646.59,24167,9.0,72862.8,-5.07,-8.33,-8.55,0,*54
1486094647.81,24168,9.06,72860.8,-5.05,-8.37,-8.51,0,*59
1486094649.03,24169,9.0,72862.3,-5.05,-8.33,-8.51,0,*5C
1486094650.25,24170,9.0,72860.8,-5.07,-8.25,-8.37,0,*51
1486094651.47,24171,9.0,72858.3,-5.07,-8.33,-8.37,0,*57
1486094652.7,24172,9.06,72862.8,-5.05,-8.25,-8.51,0,*51
1486094653.92,24173,9.0,72862.3,-5.07,-8.25,-8.37,0,*52
1486094655.14,24174,9.0,72860.5,-5.05,-8.25,-8.51,0,*57
1486094656.37,24175,9.0,72860.0,-5.07,-8.25,-8.37,0,*54
1486094657.61,24176,9.06,72860.8,-5.07,-8.33,-8.51,0,*50
1486094658.82,24177,9.0,72860.5,-5.07,-8.33,-8.37,0,*51
1486094660.06,24178,9.0,72860.3,-5.07,-8.33,-8.51,0,*5E
1486094661.29,24179,9.0,72862.8,-5.05,-8.37,-8.51,0,*59
1486094662.53,24180,9.0,72860.8,-5.07,-8.25,-8.51,0,*5E
1486094663.76,24181,9.0,72862.8,-5.07,-8.25,-8.37,0,*5F
1486094664.98,24182,9.0,72864.5,-5.05,-8.25,-8.51,0,*5E
1486094666.17,24183,9.0,72864.3,-5.05,-8.25,-8.63,0,*5E
1486094667.38,24184,9.06,72866.0,-5.07,-8.33,-8.67,0,*58
1486094668.59,24185,9.0,72862.3,-5.05,-8.33,-8.81,0,*53
1486094669.82,24186,9.0,72860.3,-5.07,-8.45,-8.89,0,*5B
1486094671.02,24187,9.0,72858.8,-5.05,-8.55,-9.01,0,*58
1486094672.22,24188,9.0,72862.0,-5.05,-8.67,-9.01,0,*56
1486094673.46,24189,9.06,72864.0,-5.07,-8.75,-9.15,0,*53
1486094674.71,24190,9.0,72864.3,-5.07,-8.75,-9.15,0,*5B
1486094675.96,24191,9.0,72860.5,-5.07,-8.93,-9.15,0,*52
1486094677.16,24192,9.0,72862.3,-5.05,-9.05,-9.19,0,*51
1486094678.38,24193,9.06,72862.0,-5.07,-9.05,-9.27,0,*5F
1486094679.63,24194,9.0,72862.0,-5.07,-9.19,-9.37,0,*54
1486094680.88,24195,9.06,72866.5,-5.07,-9.19,-9.37,0,*55
1486094682.07,24196,9.0,72864.0,-5.05,-9.31,-9.31,0,*58
1486094683.33,24197,9.0,72860.3,-5.05,-9.37,-9.45,0,*5C
1486094684.58,24198,9.0,72864.3,-5.05,-9.49,-9.49,0,*56
1486094685.84,24199,9.0,72860.5,-5.07,-9.57,-9.49,0,*5A
1486094687.1,24200,9.0,72862.8,-5.07,-9.57,-9.49,0,*59
1486094688.36,24201,9.0,72862.0,-5.07,-9.61,-9.49,0,*5D
1486094689.63,24202,9.0,72862.3,-5.07,-9.61,-9.57,0,*51
1486094690.85,24203,9.0,72860.8,-5.05,-9.75,-9.57,0,*57
1486094692.09,24204,9.0,72860.3,-5.07,-9.75,-9.49,0,*5D
1486094693.35,24205,9.0,72858.8,-5.07,-9.83,-9.57,0,*5A
1486094694.62,24206,9.06,72858.8,-5.07,-9.83,-9.49,0,*56
1486094695.88,24207,9.0,72852.0,-5.07,-9.83,-9.49,0,*57
1486094697.14,24208,9.06,72858.3,-5.07,-9.83,-9.45,0,*54
1486094698.41,24209,9.0,72848.8,-5.07,-9.83,-9.37,0,*50
1486094699.63,24210,9.06,72848.8,-5.07,-9.75,-9.27,0,*50
1486094700.87,24211,9.0,72842.5,-5.07,-9.61,-9.19,0,*59
1486094702.06,24212,9.0,72844.8,-5.09,-9.67,-9.23,0,*5B
1486094703.27,24213,9.06,72846.0,-5.09,-9.53,-9.19,0,*54
1486094704.52,24214,9.0,72842.8,-5.09,-9.41,-9.11,0,*58
1486094705.75,24215,9.06,72852.0,-5.09,-9.41,-9.19,0,*51
1486094706.97,24216,9.06,72852.8,-5.07,-9.19,-9.05,0,*5C
1486094708.17,24217,9.0,72854.0,-5.05,-9.19,-9.05,0,*5F
1486094709.36,24218,9.0,72860.5,-5.09,-9.23,-9.19,0,*58
1486094710.56,24219,9.0,72858.5,-5.09,-9.19,-9.23,0,*59
1486094711.75,24220,9.0,72854.5,-5.09,-9.19,-9.31,0,*50
1486094712.98,24221,9.0,72850.3,-5.09,-9.19,-9.37,0,*57
1486094714.2,24222,9.0,72852.5,-5.09,-9.23,-9.37,0,*5D
1486094715.43,24223,9.0,72846.8,-5.09,-9.31,-9.41,0,*5E
1486094716.68,24224,9.0,72846.8,-5.09,-9.37,-9.41,0,*5F
1486094717.94,24225,9.0,72850.0,-5.11,-9.49,-9.45,0,*5A
1486094719.19,24226,9.0,72846.3,-5.09,-9.49,-9.49,0,*5C
1486094720.43,24227,9.0,72852.0,-5.09,-9.49,-9.49,0,*5D
1486094721.68,24228,9.0,72856.0,-5.09,-9.61,-9.53,0,*53
1486094722.92,24229,9.0,72854.3,-5.09,-9.61,-9.53,0,*52
1486094724.15,24230,9.0,72858.8,-5.11,-9.79,-9.71,0,*5A
1486094725.34,24231,9.0,72856.3,-5.09,-9.89,-9.67,0,*5A
1486094726.53,24232,9.0,72858.8,-5.09,-10.01,-9.67,0,*61
1486094727.74,24233,9.06,72858.8,-5.09,-10.15,-9.67,0,*65
1486094728.97,24234,9.0,72854.8,-5.11,-10.27,-9.67,0,*6A
1486094730.2,24235,9.0,72852.5,-5.09,-10.35,-9.61,0,*67
1486094731.43,24236,9.0,72854.3,-5.09,-10.35,-9.53,0,*65
1486094732.68,24237,9.0,72852.0,-5.09,-10.41,-9.41,0,*64
1486094733.91,24238,9.06,72854.0,-5.09,-10.31,-9.37,0,*6D
1486094735.16,24239,9.0,72850.3,-5.11,-10.35,-9.41,0,*60
1486094736.36,24240,9.0,72854.3,-5.09,-10.19,-9.31,0,*6E
1486094737.59,24241,9.0,72854.3,-5.09,-10.31,-9.37,0,*63
1486094738.82,24242,9.0,72852.5,-5.11,-10.35,-9.27,0,*6C
1486094740.08,24243,9.0,72852.8,-5.11,-10.35,-9.37,0,*6C
1486094741.28,24244,9.0,72852.0,-5.09,-10.35,-9.31,0,*64
1486094742.53,24245,9.0,72852.5,-5.11,-10.41,-9.27,0,*68
1486094743.75,24246,9.0,72852.3,-5.11,-10.49,-9.27,0,*63
1486094744.95,24247,9.0,72850.3,-5.09,-10.49,-9.23,0,*6F
1486094746.19,24248,9.0,72850.3,-5.11,-10.53,-9.15,0,*67
1486094747.41,24249,9.0,72854.5,-5.11,-10.53,-9.01,0,*63
1486094748.61,24250,9.0,72850.3,-5.09,-10.57,-8.97,0,*68
1486094749.83,24251,9.0,72848.0,-5.11,-10.53,-8.89,0,*6B
1486094751.05,24252,9.06,72848.0,-5.09,-10.49,-8.81,0,*62
1486094752.3,24253,9.06,72852.8,-5.11,-10.41,-8.71,0,*6D
1486094753.54,24254,9.0,72846.0,-5.11,-10.41,-8.63,0,*69
1486094754.74,24255,9.0,72842.0,-5.09,-10.27,-8.59,0,*68
1486094755.95,24256,9.0,72842.5,-5.09,-10.19,-8.37,0,*6E
1486094757.17,24257,9.0,72848.0,-5.11,-10.23,-8.29,0,*60
1486094758.36,24258,9.06,72850.8,-5.09,-10.05,-8.29,0,*62
1486094759.57,24259,9.06,72872.5,-5.11,-9.97,-8.33,0,*52
1486094760.75,24260,9.06,72856.8,-5.09,-9.93,-8.29,0,*5E
1486094761.94,24261,9.06,72844.3,-5.09,-9.97,-8.29,0,*5B
1486094763.13,24262,9.0,72846.8,-5.09,-9.93,-8.17,0,*51
1486094764.32,24263,9.0,72826.5,-5.09,-9.89,-8.17,0,*5B
1486094765.51,24264,9.0,72824.5,-5.09,-9.79,-8.17,0,*53
1486094766.73,24265,9.0,72816.3,-5.09,-9.79,-8.11,0,*54
1486094767.97,24266,9.0,72826.3,-5.11,-9.57,-8.17,0,*54
1486094769.23,24267,9.0,72822.8,-5.11,-9.41,-8.03,0,*57
1486094770.5,24268,9.0,72830.8,-5.11,-9.37,-8.03,0,*59
1486094771.73,24269,9.0,72828.8,-5.09,-9.23,-8.11,0,*57
1486094772.95,24270,9.06,72840.3,-5.11,-9.23,-8.21,0,*55
1486094774.17,24271,9.0,72840.0,-5.11,-9.23,-8.29,0,*5C
1486094775.39,24272,9.0,72844.5,-5.09,-9.11,-8.25,0,*5B
1486094776.64,24273,9.0,72848.3,-5.11,-9.15,-8.29,0,*5B
1486094777.87,24274,9.0,72856.3,-5.09,-9.11,-8.25,0,*5D
1486094779.09,24275,9.0,72854.5,-5.09,-9.11,-8.29,0,*50
1486094780.31,24276,9.0,72846.0,-5.09,-9.11,-8.29,0,*53
1486094781.53,24277,9.0,72844.8,-5.11,-9.23,-8.41,0,*54
1486094782.78,24278,9.0,72846.5,-5.11,-9.41,-8.45,0,*5B
1486094784.03,24279,9.0,72828.5,-5.11,-9.41,-8.71,0,*5D
1486094785.26,24280,9.0,72822.8,-5.11,-9.53,-8.63,0,*5B
1486094786.47,24281,9.0,72838.3,-5.09,-9.49,-8.55,0,*5D
1486094787.71,24282,9.0,72838.3,-5.11,-9.57,-8.45,0,*59
1486094788.93,24283,9.0,72842.5,-5.09,-9.61,-8.37,0,*51
1486094790.16,24284,9.06,72842.8,-5.11,-9.57,-8.33,0,*5E
1486094791.38,24285,9.06,72838.3,-5.09,-9.41,-8.29,0,*5A
1486094792.63,24286,9.0,72842.8,-5.11,-9.45,-8.21,0,*5C
1486094793.85,24287,9.0,72846.3,-5.09,-9.23,-8.03,0,*54
1486094795.04,24288,9.0,72850.5,-5.09,-9.23,-8.17,0,*5E
1486094796.24,24289,9.0,72844.5,-5.09,-9.19,-8.17,0,*56
1486094797.49,24290,9.0,72856.3,-5.09,-9.11,-8.11,0,*50
1486094798.71,24291,9.0,72866.0,-5.09,-9.11,-8.25,0,*56
1486094799.97,24292,9.0,72870.3,-5.11,-9.15,-8.41,0,*5A
1486094801.19,24293,9.0,72874.3,-5.09,-9.11,-8.55,0,*53
1486094802.4,24294,9.0,72862.0,-5.11,-9.23,-8.71,0,*5A
1486094803.62,24295,9.0,72858.3,-5.09,-9.41,-8.71,0,*56
1486094804.84,24296,9.0,72854.0,-5.09,-9.57,-8.89,0,*55
1486094806.06,24297,9.0,72852.3,-5.11,-9.79,-8.97,0,*5E
1486094807.25,24298,9.0,72848.0,-5.09,-9.75,-8.93,0,*50
1486094808.44,24299,9.0,72850.8,-5.09,-9.89,-8.97,0,*56
1486094809.63,24300,9.0,72850.0,-5.09,-9.93,-9.01,0,*52
1486094810.82,24301,9.06,72850.0,-5.09,-9.93,-8.97,0,*5D
1486094812.04,24302,9.0,72856.3,-5.11,-10.05,-9.01,0,*6E
1486094813.24,24303,9.0,72854.5,-5.09,-10.01,-9.05,0,*66
1486094814.48,24304,9.0,72832.8,-5.11,-10.09,-9.11,0,*65
1486094815.7,24305,9.06,72822.8,-5.09,-10.05,-9.11,0,*61
1486094816.9,24306,9.0,72814.3,-5.09,-10.05,-9.05,0,*67
1486094818.12,24307,9.06,72820.5,-5.11,-10.09,-9.01,0,*67
1486094819.31,24308,9.0,72820.8,-5.09,-10.05,-8.97,0,*63
1486094820.53,24309,9.0,72830.3,-5.09,-10.05,-9.11,0,*6D
1486094821.75,24310,9.06,72840.0,-5.11,-10.05,-9.01,0,*6D
1486094822.97,24311,9.0,72842.5,-5.11,-10.05,-9.01,0,*6C
1486094824.18,24312,9.0,72846.5,-5.11,-9.97,-8.89,0,*5D
1486094825.38,24313,9.0,72842.3,-5.09,-9.93,-8.85,0,*5D
1486094826.62,24314,9.0,72844.5,-5.11,-9.83,-8.85,0,*52
1486094827.84,24315,9.0,72842.0,-5.09,-9.79,-8.81,0,*5B
1486094829.04,24316,9.0,72846.0,-5.09,-9.89,-8.81,0,*57
1486094830.28,24317,9.0,72848.3,-5.11,-9.83,-8.85,0,*51
1486094831.47,24318,9.0,72840.3,-5.09,-9.79,-8.71,0,*59
1486094832.67,24319,9.0,72840.5,-5.09,-9.79,-8.59,0,*52
1486094833.85,24320,9.0,72844.3,-5.09,-9.75,-8.67,0,*59
1486094835.04,24321,9.0,72846.0,-5.09,-9.75,-8.67,0,*58
1486094836.26,24322,9.0,72848.3,-5.11,-9.71,-8.71,0,*51
1486094837.47,24323,9.0,72856.3,-5.11,-9.67,-8.63,0,*54
1486094838.68,24324,9.06,72860.3,-5.09,-9.61,-8.59,0,*55
1486094839.9,24325,9.0,72862.0,-5.09,-9.53,-8.59,0,*55
1486094841.13,24326,9.0,72856.3,-5.11,-9.53,-8.63,0,*56
1486094842.34,24327,9.0,72860.3,-5.09,-9.49,-8.59,0,*5C
1486094843.56,24328,9.0,72862.5,-5.09,-9.53,-8.59,0,*58
1486094844.8,24329,9.0,72862.0,-5.11,-9.57,-8.85,0,*55
1486094846.03,24330,9.0,72862.0,-5.11,-9.57,-8.75,0,*52
1486094847.27,24331,9.0,72864.8,-5.09,-9.41,-8.81,0,*56
1486094848.51,24332,9.0,72866.3,-5.09,-9.41,-8.81,0,*55
1486094849.76,24333,9.0,72868.8,-5.11,-9.41,-8.97,0,*5A
1486094851.01,24334,9.0,72866.3,-5.11,-9.41,-8.97,0,*5D
1486094852.25,24335,9.0,72862.5,-5.11,-9.37,-8.97,0,*5D
1486094853.5,24336,9.0,72862.5,-5.11,-9.41,-9.01,0,*51
1486094854.76,24337,9.0,72860.3,-5.11,-9.41,-9.01,0,*50
1486094856.03,24338,9.0,72864.0,-5.11,-9.45,-9.11,0,*5A
1486094857.28,24339,9.0,72864.5,-5.09,-9.41,-9.11,0,*56
1486094858.54,24340,9.0,72868.0,-5.11,-9.45,-9.15,0,*51
1486094859.79,24341,9.0,72864.0,-5.11,-9.45,-9.23,0,*55
1486094861.06,24342,9.0,72862.3,-5.11,-9.45,-9.37,0,*53
1486094862.28,24343,9.0,72866.0,-5.09,-9.49,-9.23,0,*52
1486094863.54,24344,9.0,72864.3,-5.11,-9.57,-9.37,0,*56
1486094864.75,24345,9.0,72862.8,-5.09,-9.53,-9.23,0,*5F
1486094865.94,24346,9.0,72862.0,-5.09,-9.67,-9.23,0,*5B
1486094867.19,24347,9.0,72864.8,-5.11,-9.79,-9.37,0,*59
1486094868.38,24348,9.0,72866.0,-5.09,-9.67,-9.31,0,*56
1486094869.62,24349,9.0,72866.8,-5.11,-9.83,-9.27,0,*53
1486094870.86,24350,9.0,72862.0,-5.11,-9.83,-9.27,0,*5B
1486094872.07,24351,9.0,72862.5,-5.11,-9.93,-9.23,0,*5F
1486094873.29,24352,9.0,72862.3,-5.09,-9.79,-9.11,0,*50
1486094874.52,24353,9.0,72862.0,-5.11,-9.83,-9.23,0,*5C
1486094875.71,24354,9.0,72858.5,-5.09,-9.89,-9.05,0,*5C
1486094876.93,24355,9.0,72862.3,-5.09,-9.79,-9.15,0,*53
1486094878.13,24356,9.0,72856.5,-5.09,-9.79,-9.05,0,*51
1486094879.32,24357,9.0,72860.0,-5.09,-9.89,-8.97,0,*55
1486094880.53,24358,9.0,72860.5,-5.09,-9.83,-8.93,0,*54
1486094881.73,24359,9.0,72856.3,-5.09,-9.75,-8.85,0,*5B
1486094882.95,24360,9.0,72858.5,-5.11,-9.71,-8.75,0,*53
1486094884.16,24361,9.0,72860.0,-5.09,-9.53,-8.55,0,*59
1486094885.35,24362,9.0,72860.5,-5.09,-9.31,-8.29,0,*55
1486094886.57,24363,9.0,72856.5,-5.11,-9.27,-8.33,0,*51
1486094887.82,24364,9.0,72856.8,-5.09,-9.11,-8.11,0,*5A
1486094889.04,24365,9.0,72858.3,-5.09,-9.05,-7.99,0,*51
1486094890.29,24366,9.0,72858.0,-5.09,-8.81,-7.77,0,*5F
1486094891.51,24367,9.0,72856.0,-5.09,-8.67,-7.65,0,*55
1486094892.76,24368,9.0,72858.0,-5.11,-8.55,-7.61,0,*56
1486094893.99,24369,9.0,72856.5,-5.09,-8.37,-7.57,0,*5F
1486094895.21,24370,9.0,72856.0,-5.09,-8.29,-7.43,0,*5D
1486094896.48,24371,9.0,72854.5,-5.07,-8.11,-7.27,0,*5B
1486094897.71,24372,9.0,72858.3,-5.09,-8.03,-7.23,0,*51
1486094898.93,24373,9.0,72862.0,-5.09,-7.77,-7.19,0,*55
1486094900.18,24374,9.0,72858.5,-5.11,-7.77,-7.23,0,*52
1486094901.42,24375,9.0,72852.3,-5.11,-7.69,-7.23,0,*5C
1486094902.66,24376,9.0,72848.0,-5.07,-7.53,-7.05,0,*55
1486094903.88,24377,9.0,72850.8,-5.11,-7.49,-7.15,0,*59
1486094905.1,24378,9.0,72850.3,-5.09,-7.43,-7.23,0,*50
1486094906.32,24379,9.0,72850.8,-5.11,-7.49,-7.23,0,*52
1486094907.59,24380,9.06,72850.3,-5.11,-7.39,-7.27,0,*57
1486094908.86,24381,9.0,72848.8,-5.11,-7.35,-7.27,0,*5A
1486094910.13,24382,9.0,72850.5,-5.11,-7.35,-7.27,0,*59
1486094911.4,24383,9.0,72854.8,-5.07,-7.31,-7.27,0,*5B
1486094912.64,24384,9.0,72854.0,-5.09,-7.43,-7.35,0,*54
1486094913.91,24385,9.0,72854.0,-5.07,-7.39,-7.39,0,*5A
1486094915.1,24386,9.0,72856.0,-5.09,-7.49,-7.49,0,*57
1486094916.32,24387,9.0,72854.3,-5.09,-7.49,-7.43,0,*5C
1486094917.51,24388,9.0,72850.8,-5.09,-7.49,-7.49,0,*59
1486094918.74,24389,9.06,72856.0,-5.09,-7.57,-7.49,0,*57
1486094919.99,24390,9.0,72852.0,-5.09,-7.65,-7.73,0,*57
1486094921.23,24391,9.0,72852.8,-5.07,-7.69,-7.83,0,*5B